WetterOnline ( https://www.wetteronline.de )

Wetter aktuell Fürstenzell

Aktuelles Wetter: Fürstenzell (480m)

6-stündlich | Neueste Meldungen
Ortszeit Temperatur Wetter
Mi, 22.01. 13:00 -3.4° C Nebel
Mi, 22.01. 7:00 -3.4° C Nebel
Mi, 22.01. 1:00 -2.3° C bedeckt
Di, 21.01. 19:00 -1.6° C bedeckt
Di, 21.01. 13:00 -1.1° C bewölkt
Di, 21.01. 7:00 -3.7° C bedeckt
Di, 21.01. 1:00 -2.2° C wolkenlos
Mo, 20.01. 19:00 -0.6° C wolkenlos
Ortszeit Temperatur Wetter
Mi, 22.01. 18:30 -3.6° C bedeckt
Mi, 22.01. 18:20 -3.6° C bedeckt
Mi, 22.01. 18:10 -3.6° C bedeckt
Mi, 22.01. 18:00 -3.8° C bedeckt
Mi, 22.01. 17:50 -3.8° C bedeckt
Mi, 22.01. 17:40 -3.7° C bedeckt
Mi, 22.01. 17:30 -3.4° C bedeckt
Mi, 22.01. 17:00 -3.4° C bedeckt
Mi, 22.01. 16:30 -3.3° C bedeckt
Mi, 22.01. 16:00 -3.3° C bedeckt
Mi, 22.01. 15:30 -3.4° C bedeckt
Ortszeit Relative Feuchte Sichtweite
Mi, 22.01. 13:00 98% 0.6 km
Mi, 22.01. 7:00 99% 100 m
Mi, 22.01. 1:00 96% 2.2 km
Di, 21.01. 19:00 94% 6 km
Di, 21.01. 13:00 84% 18 km
Di, 21.01. 7:00 97% 4.6 km
Di, 21.01. 1:00 87% 30 km
Mo, 20.01. 19:00 88% 30 km
Ortszeit Relative Feuchte Sichtweite
Mi, 22.01. 18:30 96% 3.0 km
Mi, 22.01. 18:20 96% -
Mi, 22.01. 18:10 96% -
Mi, 22.01. 18:00 97% 3.9 km
Mi, 22.01. 17:50 97% -
Mi, 22.01. 17:40 96% -
Mi, 22.01. 17:30 96% 2.6 km
Mi, 22.01. 17:00 96% 3.4 km
Mi, 22.01. 16:30 96% 2.7 km
Mi, 22.01. 16:00 96% 2.7 km
Mi, 22.01. 15:30 96% 2.9 km
Ortszeit Niederschlagsmenge Niederschlagsart
Mi, 22.01. 13:00 0.1 l/m2 in 6 Std. Sprühregen
Mi, 22.01. 7:00 0.0 l/m2 in 12 Std. -
Mi, 22.01. 1:00 0.0 l/m2 in 6 Std. -
Di, 21.01. 19:00 0.0 l/m2 in 12 Std. -
Di, 21.01. 13:00 0.0 l/m2 in 6 Std. -
Di, 21.01. 7:00 0.0 l/m2 in 12 Std. -
Di, 21.01. 1:00 0.0 l/m2 in 6 Std. -
Mo, 20.01. 19:00 0.1 l/m2 in 12 Std. -
Ortszeit Niederschlagsmenge Niederschlagsart
Mi, 22.01. 18:30 0.0 l/m2 in 1 Std. -
Mi, 22.01. 18:20 keine Meldung -
Mi, 22.01. 18:10 keine Meldung -
Mi, 22.01. 18:00 0.0 l/m2 in 1 Std. -
Mi, 22.01. 17:50 keine Meldung -
Mi, 22.01. 17:40 keine Meldung -
Mi, 22.01. 17:30 0.0 l/m2 in 1 Std. -
Mi, 22.01. 17:00 0.0 l/m2 in 1 Std. -
Mi, 22.01. 16:30 0.0 l/m2 in 1 Std. -
Mi, 22.01. 16:00 0.0 l/m2 in 1 Std. -
Mi, 22.01. 15:30 0.0 l/m2 in 1 Std. -
Ortszeit Stärke Spitze Richtung
km/h Bft. km/h Grad Sektor
Mi, 22.01. 13:00 7 2 14 320° NW
Mi, 22.01. 7:00 7 2 11 260° W
Mi, 22.01. 1:00 0 0 14 - -
Di, 21.01. 19:00 6 1 15 160° S
Di, 21.01. 13:00 7 2 14 170° S
Di, 21.01. 7:00 6 1 20 80° O
Di, 21.01. 1:00 13 3 19 70° O
Mo, 20.01. 19:00 11 2 18 50° NO
Ortszeit Stärke Spitze Richtung
km/h Bft. km/h Grad Sektor
Mi, 22.01. 18:30 7 2 11 280° W
Mi, 22.01. 18:20 7 2 - 280° W
Mi, 22.01. 18:10 7 2 - 290° W
Mi, 22.01. 18:00 6 1 17 310° NW
Mi, 22.01. 17:50 6 1 - 310° NW
Mi, 22.01. 17:40 9 2 - 320° NW
Mi, 22.01. 17:30 7 2 11 260° W
Mi, 22.01. 17:00 7 2 14 260° W
Mi, 22.01. 16:30 7 2 14 280° W
Mi, 22.01. 16:00 6 1 17 320° NW
Mi, 22.01. 15:30 11 2 18 290° W
Ortszeit Untergrenze Bedeckung Gattung
total tief tief mittel hoch
Mi, 22.01. 13:00 30 m 8/8 8/8 - - -
Mi, 22.01. 7:00 <30 m 8/8 0/8 - - -
Mi, 22.01. 1:00 60 m 8/8 8/8 - - -
Di, 21.01. 19:00 150 m 8/8 8/8 - - -
Di, 21.01. 13:00 240 m 7/8 8/8 - - -
Di, 21.01. 7:00 480 m 8/8 8/8 - - -
Di, 21.01. 1:00 - 0/8 0/8 - - -
Mo, 20.01. 19:00 - 0/8 0/8 - - -
Ortszeit Bedeckungsgrad in Achtel und Wolkenuntergrenze
Mi, 22.01. 18:30 8(90m)
Mi, 22.01. 18:20 8(90m)
Mi, 22.01. 18:10 8(90m)
Mi, 22.01. 18:00 8(90m)
Mi, 22.01. 17:50 8(90m)
Mi, 22.01. 17:40 8(90m)
Mi, 22.01. 17:30 8(90m)
Mi, 22.01. 17:00 8(90m)
Mi, 22.01. 16:30 8(90m)
Mi, 22.01. 16:00 8(90m)
Mi, 22.01. 15:30 8(90m)
Ortszeit Luftdruck NN (hPa) Tendenz (hPa in 3 Std.)
Mi, 22.01. 13:00 1037 - 0,9
Mi, 22.01. 7:00 1037 - 0,8
Mi, 22.01. 1:00 1039 - 1,2
Di, 21.01. 19:00 1041 - 0,7
Di, 21.01. 13:00 1044 - 0,9
Di, 21.01. 7:00 1045 - 0,3
Di, 21.01. 1:00 1046 - 0,9
Mo, 20.01. 19:00 1047 + 0,2
Ortszeit Luftdruck NN (hPa) Tendenz (hPa in 3 Std.)
Mi, 22.01. 18:30 1037 + 0,8
Mi, 22.01. 18:20 1037 keine Meldung
Mi, 22.01. 18:10 1037 keine Meldung
Mi, 22.01. 18:00 1037 + 0,5
Mi, 22.01. 17:50 1037 keine Meldung
Mi, 22.01. 17:40 1037 keine Meldung
Mi, 22.01. 17:30 1037 + 0,3
Mi, 22.01. 17:00 1036 - 0,3
Mi, 22.01. 16:30 1036 - 0,6
Mi, 22.01. 16:00 1036 - 0,8
Mi, 22.01. 15:30 1036 - 1,1
Ortszeit Schneehöhe (cm)
Mi, 22.01. 13:00 0
Mi, 22.01. 7:00 0
Mi, 22.01. 1:00 0
Di, 21.01. 19:00 0
Di, 21.01. 13:00 0
Di, 21.01. 7:00 0
Di, 21.01. 1:00 0
Mo, 20.01. 19:00 0
Ortszeit Schneehöhe (cm)
Mi, 22.01. 18:30 0
Mi, 22.01. 18:20 0
Mi, 22.01. 18:10 0
Mi, 22.01. 18:00 0
Mi, 22.01. 17:50 0
Mi, 22.01. 17:40 0
Mi, 22.01. 17:30 0
Mi, 22.01. 17:00 0
Mi, 22.01. 16:30 0
Mi, 22.01. 16:00 0
Mi, 22.01. 15:30 0
Link zu dieser Seite / Seite empfehlen

Das Wetter in ...